Time,TemperatureF,DewpointF,PressureIn,WindDirection,WindDirectionDegrees,WindSpeedMPH,WindSpeedGustMPH,Humidity,HourlyPrecipIn,Conditions,Clouds,dailyrainin,SoftwareType,DateUTC
2013-09-24 00:01:00,62.0,60.3,30.00,SSW,210,0.0,0.0,94,0.00,CLR,,0.00,WeatherDisplay:10.37,2013-09-24 04:01:00,
2013-09-24 00:10:00,62.1,60.4,30.00,SSW,210,0.0,1.0,94,0.00,SCT,,0.00,WeatherDisplay:10.37,2013-09-24 04:10:00,
2013-09-24 00:20:00,61.9,60.2,30.00,SSW,210,0.0,0.0,94,0.00,SCT,,0.00,WeatherDisplay:10.37,2013-09-24 04:20:00,
2013-09-24 00:31:00,61.7,60.0,30.00,SSW,210,0.0,0.0,94,0.00,SCT,,0.00,WeatherDisplay:10.37,2013-09-24 04:31:00,
2013-09-24 00:40:00,61.5,59.8,30.00,SSW,210,0.0,1.0,94,0.00,SCT,,0.00,WeatherDisplay:10.37,2013-09-24 04:40:00,
2013-09-24 00:50:00,61.8,60.4,30.00,SSW,210,0.0,1.0,95,0.00,BKN,,0.00,WeatherDisplay:10.37,2013-09-24 04:50:00,
2013-09-24 01:01:00,62.9,60.6,30.00,SSW,210,0.0,2.0,92,0.00,BKN,,0.00,WeatherDisplay:10.37,2013-09-24 05:01:00,
2013-09-24 01:10:00,63.6,60.7,30.00,SSW,210,0.0,1.0,90,0.00,OVC,,0.00,WeatherDisplay:10.37,2013-09-24 05:10:00,
2013-09-24 01:20:00,64.0,60.7,30.00,SSW,210,0.0,1.0,89,0.00,OVC,,0.00,WeatherDisplay:10.37,2013-09-24 05:20:00,
2013-09-24 01:31:00,64.0,60.7,30.00,SSW,210,0.0,1.0,89,0.00,OVC,,0.00,WeatherDisplay:10.37,2013-09-24 05:31:00,
2013-09-24 01:40:00,64.3,60.7,30.00,SSW,210,0.0,3.0,88,0.00,OVC,,0.00,WeatherDisplay:10.37,2013-09-24 05:40:00,
2013-09-24 01:50:00,64.3,60.7,30.00,SSW,210,0.0,0.0,88,0.00,OVC,,0.00,WeatherDisplay:10.37,2013-09-24 05:50:00,
2013-09-24 02:01:00,63.5,60.2,30.00,SSW,210,0.0,0.0,89,0.00,OVC,,0.00,WeatherDisplay:10.37,2013-09-24 06:01:00,
2013-09-24 02:10:00,62.9,60.2,29.99,SSW,210,0.0,0.0,91,0.00,OVC,,0.00,WeatherDisplay:10.37,2013-09-24 06:10:00,
2013-09-24 02:20:00,62.4,60.0,29.99,SSW,210,0.0,0.0,92,0.00,OVC,,0.00,WeatherDisplay:10.37,2013-09-24 06:20:00,
2013-09-24 02:31:00,62.0,60.0,29.99,SSW,210,0.0,0.0,93,0.00,OVC,,0.00,WeatherDisplay:10.37,2013-09-24 06:31:00,
2013-09-24 02:40:00,61.8,59.8,29.99,SSW,210,0.0,0.0,93,0.00,SCT,,0.00,WeatherDisplay:10.37,2013-09-24 06:40:00,
2013-09-24 02:50:00,61.6,59.5,29.99,SSW,210,0.0,0.0,93,0.00,SCT,,0.00,WeatherDisplay:10.37,2013-09-24 06:50:00,
2013-09-24 03:01:00,61.2,59.5,29.99,SSW,210,0.0,0.0,94,0.00,SCT,,0.00,WeatherDisplay:10.37,2013-09-24 07:01:00,
2013-09-24 03:10:00,61.0,59.3,29.99,SSW,210,0.0,0.0,94,0.00,CLR,,0.00,WeatherDisplay:10.37,2013-09-24 07:10:00,
2013-09-24 03:20:00,60.9,59.2,29.99,SSW,210,0.0,1.0,94,0.00,CLR,,0.00,WeatherDisplay:10.37,2013-09-24 07:20:00,
2013-09-24 03:31:00,61.2,59.5,29.99,SSW,210,0.0,3.0,94,0.00,CLR,,0.00,WeatherDisplay:10.37,2013-09-24 07:31:00,
2013-09-24 03:40:00,61.6,59.6,29.99,SSW,210,0.0,1.0,93,0.00,CLR,,0.00,WeatherDisplay:10.37,2013-09-24 07:40:00,
2013-09-24 03:50:00,61.7,59.7,29.99,SSW,210,0.0,0.0,93,0.00,BKN,,0.00,WeatherDisplay:10.37,2013-09-24 07:50:00,
2013-09-24 04:10:00,61.7,59.3,29.99,SSW,210,0.0,1.0,92,0.00,OVC,,0.00,WeatherDisplay:10.37,2013-09-24 08:10:00,
2013-09-24 04:20:00,61.1,58.8,29.99,SSW,210,0.0,1.0,92,0.00,OVC,,0.00,WeatherDisplay:10.37,2013-09-24 08:20:00,
2013-09-24 04:31:00,60.5,58.5,29.99,SSW,210,0.0,2.0,93,0.00,OVC,,0.00,WeatherDisplay:10.37,2013-09-24 08:31:00,
2013-09-24 04:40:00,60.3,58.6,29.99,SSW,210,0.0,0.0,94,0.00,OVC,,0.00,WeatherDisplay:10.37,2013-09-24 08:40:00,
2013-09-24 04:50:00,60.3,58.6,29.99,SSW,210,1.0,4.0,94,0.00,OVC,,0.00,WeatherDisplay:10.37,2013-09-24 08:50:00,
2013-09-24 05:01:00,60.4,58.7,29.99,SSW,210,0.0,1.0,94,0.00,OVC,,0.00,WeatherDisplay:10.37,2013-09-24 09:01:00,
2013-09-24 05:10:00,61.6,59.3,30.00,SW,216,1.0,6.0,92,0.00,OVC,,0.00,WeatherDisplay:10.37,2013-09-24 09:10:00,
2013-09-24 05:20:00,63.4,59.8,30.00,SSW,204,3.0,8.0,88,0.00,OVC,,0.00,WeatherDisplay:10.37,2013-09-24 09:20:00,
2013-09-24 05:31:00,64.9,60.0,30.00,SW,218,3.0,6.0,84,0.00,OVC,,0.00,WeatherDisplay:10.37,2013-09-24 09:31:00,
2013-09-24 05:40:00,65.7,60.4,30.00,SSW,206,1.0,6.0,83,0.00,OVC,,0.00,WeatherDisplay:10.37,2013-09-24 09:40:00,
2013-09-24 05:50:00,65.9,60.6,30.00,SW,234,1.0,8.0,83,0.00,OVC,,0.00,WeatherDisplay:10.37,2013-09-24 09:50:00,
2013-09-24 06:01:00,66.1,60.5,30.01,SW,219,2.0,6.0,82,0.00,OVC,,0.00,WeatherDisplay:10.37,2013-09-24 10:01:00,
2013-09-24 06:10:00,66.3,60.6,30.01,South,174,0.0,6.0,82,0.00,OVC,,0.00,WeatherDisplay:10.37,2013-09-24 10:10:00,
2013-09-24 06:20:00,66.3,60.6,30.01,SSE,155,1.0,4.0,82,0.00,OVC,,0.00,WeatherDisplay:10.37,2013-09-24 10:20:00,
2013-09-24 06:31:00,66.2,60.5,30.01,SSE,156,1.0,6.0,82,0.00,OVC,,0.00,WeatherDisplay:10.37,2013-09-24 10:31:00,
2013-09-24 06:40:00,66.1,60.4,30.01,SSE,165,1.0,6.0,82,0.00,-RA,,0.00,WeatherDisplay:10.37,2013-09-24 10:40:00,
2013-09-24 06:50:00,66.0,60.7,30.01,South,189,1.0,4.0,83,0.00,OVC,,0.00,WeatherDisplay:10.37,2013-09-24 10:50:00,
2013-09-24 07:01:00,65.8,60.8,30.01,SSW,209,0.0,5.0,84,0.00,OVC,,0.00,WeatherDisplay:10.37,2013-09-24 11:01:00,
2013-09-24 07:10:00,65.6,61.0,30.01,SSW,207,1.0,4.0,85,0.00,-DZ,,0.00,WeatherDisplay:10.37,2013-09-24 11:10:00,
2013-09-24 07:20:00,65.4,61.1,30.01,South,181,0.0,5.0,86,0.00,-DZ,,0.00,WeatherDisplay:10.37,2013-09-24 11:20:00,
2013-09-24 07:31:00,65.2,61.2,30.01,South,179,0.0,4.0,87,0.00,-DZ,,0.00,WeatherDisplay:10.37,2013-09-24 11:31:00,
2013-09-24 07:40:00,65.0,61.4,30.01,South,179,0.0,4.0,88,0.00,OVC,,0.00,WeatherDisplay:10.37,2013-09-24 11:40:00,
2013-09-24 07:50:00,64.8,61.8,30.01,WSW,249,1.0,4.0,90,0.00,OVC,,0.00,WeatherDisplay:10.37,2013-09-24 11:50:00,
2013-09-24 08:01:00,64.6,61.9,30.02,WSW,249,0.0,1.0,91,0.00,OVC,,0.00,WeatherDisplay:10.37,2013-09-24 12:01:00,
2013-09-24 08:10:00,64.4,62.0,30.02,West,272,0.0,4.0,92,0.00,OVC,,0.00,WeatherDisplay:10.37,2013-09-24 12:10:00,
2013-09-24 08:20:00,64.4,62.3,30.02,West,273,0.0,2.0,93,0.00,OVC,,0.00,WeatherDisplay:10.37,2013-09-24 12:20:00,
2013-09-24 08:31:00,64.5,62.4,30.02,WSW,258,0.0,5.0,93,0.00,OVC,,0.00,WeatherDisplay:10.37,2013-09-24 12:31:00,
2013-09-24 08:40:00,64.5,62.4,30.01,WSW,243,0.0,5.0,93,0.00,OVC,,0.00,WeatherDisplay:10.37,2013-09-24 12:40:00,
2013-09-24 08:50:00,64.6,62.5,30.01,SW,232,1.0,6.0,93,0.00,OVC,,0.00,WeatherDisplay:10.37,2013-09-24 12:50:00,
2013-09-24 09:01:00,64.9,62.8,30.01,SW,232,1.0,6.0,93,0.00,OVC,,0.00,WeatherDisplay:10.37,2013-09-24 13:01:00,
2013-09-24 09:10:00,65.1,63.1,30.01,SW,228,0.0,5.0,93,0.00,OVC,,0.00,WeatherDisplay:10.37,2013-09-24 13:10:00,
2013-09-24 09:20:00,65.3,63.2,30.01,SSW,205,2.0,5.0,93,0.00,OVC,,0.00,WeatherDisplay:10.37,2013-09-24 13:20:00,
2013-09-24 09:31:00,65.5,63.2,30.01,South,178,0.0,5.0,92,0.00,OVC,,0.00,WeatherDisplay:10.37,2013-09-24 13:31:00,
2013-09-24 09:40:00,65.7,63.0,30.01,SSE,161,1.0,8.0,91,0.00,OVC,,0.00,WeatherDisplay:10.37,2013-09-24 13:40:00,
2013-09-24 09:50:00,66.0,62.9,30.01,SSE,162,1.0,5.0,90,0.00,OVC,,0.00,WeatherDisplay:10.37,2013-09-24 13:50:00,
2013-09-24 10:01:00,66.3,63.3,30.00,SSE,159,0.0,4.0,90,0.00,OVC,,0.00,WeatherDisplay:10.37,2013-09-24 14:01:00,
2013-09-24 10:10:00,66.6,62.9,30.00,SSE,158,1.0,5.0,88,0.00,OVC,,0.00,WeatherDisplay:10.37,2013-09-24 14:10:00,
2013-09-24 10:20:00,66.9,63.2,30.00,SSE,156,0.0,2.0,88,0.00,OVC,,0.00,WeatherDisplay:10.37,2013-09-24 14:20:00,
2013-09-24 10:31:00,67.1,62.8,30.00,South,184,1.0,6.0,86,0.00,OVC,,0.00,WeatherDisplay:10.37,2013-09-24 14:31:00,
2013-09-24 10:40:00,67.4,63.1,30.01,South,188,0.0,5.0,86,0.00,OVC,,0.00,WeatherDisplay:10.37,2013-09-24 14:40:00,
2013-09-24 10:50:00,67.6,62.9,30.01,SSE,162,1.0,5.0,85,0.00,OVC,,0.00,WeatherDisplay:10.37,2013-09-24 14:50:00,
2013-09-24 11:01:00,67.7,62.7,30.01,SE,145,0.0,5.0,84,0.00,OVC,,0.00,WeatherDisplay:10.37,2013-09-24 15:01:00,
2013-09-24 11:10:00,67.8,63.1,30.00,SE,146,1.0,5.0,85,0.00,OVC,,0.00,WeatherDisplay:10.37,2013-09-24 15:10:00,
2013-09-24 11:20:00,67.9,63.6,30.00,SE,138,0.0,4.0,86,0.00,OVC,,0.00,WeatherDisplay:10.37,2013-09-24 15:20:00,
2013-09-24 11:31:00,68.1,63.4,30.00,SSE,149,2.0,5.0,85,0.00,OVC,,0.00,WeatherDisplay:10.37,2013-09-24 15:31:00,
2013-09-24 11:40:00,68.1,63.4,30.00,SSE,153,0.0,6.0,85,0.00,OVC,,0.00,WeatherDisplay:10.37,2013-09-24 15:40:00,
2013-09-24 11:50:00,68.1,64.1,30.01,SE,142,0.0,4.0,87,0.00,OVC,,0.00,WeatherDisplay:10.37,2013-09-24 15:50:00,
2013-09-24 12:01:00,68.1,63.8,30.01,SE,142,0.0,2.0,86,0.00,OVC,,0.00,WeatherDisplay:10.37,2013-09-24 16:01:00,
2013-09-24 12:10:00,67.9,63.9,30.01,SE,142,0.0,1.0,87,0.00,OVC,,0.00,WeatherDisplay:10.37,2013-09-24 16:10:00,
2013-09-24 12:20:00,67.9,64.2,30.01,SE,142,0.0,1.0,88,0.00,OVC,,0.00,WeatherDisplay:10.37,2013-09-24 16:20:00,
2013-09-24 12:31:00,67.9,63.9,30.00,SE,142,0.0,0.0,87,0.00,OVC,,0.00,WeatherDisplay:10.37,2013-09-24 16:31:00,
2013-09-24 12:40:00,67.9,64.2,30.00,SE,142,0.0,1.0,88,0.00,OVC,,0.00,WeatherDisplay:10.37,2013-09-24 16:40:00,
2013-09-24 12:50:00,67.7,64.3,30.00,SE,142,0.0,0.0,89,0.00,OVC,,0.00,WeatherDisplay:10.37,2013-09-24 16:50:00,
2013-09-24 13:01:00,67.6,64.6,30.00,SE,142,0.0,0.0,90,0.00,OVC,,0.00,WeatherDisplay:10.37,2013-09-24 17:01:00,
2013-09-24 13:10:00,67.6,64.6,29.99,SE,142,0.0,1.0,90,0.00,-DZ,,0.00,WeatherDisplay:10.37,2013-09-24 17:10:00,
2013-09-24 13:20:00,67.6,64.6,29.98,SE,142,0.0,1.0,90,0.00,-DZ,,0.00,WeatherDisplay:10.37,2013-09-24 17:20:00,
2013-09-24 13:31:00,67.5,64.8,29.98,SE,142,0.0,0.0,91,0.00,-DZ,,0.00,WeatherDisplay:10.37,2013-09-24 17:31:00,
2013-09-24 13:40:00,67.8,65.4,29.98,SE,142,0.0,1.0,92,0.00,OVC,,0.00,WeatherDisplay:10.37,2013-09-24 17:40:00,
2013-09-24 13:50:00,67.9,65.5,29.98,SE,142,0.0,1.0,92,0.01,RA,,0.01,WeatherDisplay:10.37,2013-09-24 17:50:00,
2013-09-24 14:01:00,67.8,65.1,29.97,SE,142,0.0,1.0,91,0.00,OVC,,0.01,WeatherDisplay:10.37,2013-09-24 18:01:00,
2013-09-24 14:10:00,67.6,65.2,29.98,SE,142,0.0,1.0,92,0.00,OVC,,0.01,WeatherDisplay:10.37,2013-09-24 18:10:00,
2013-09-24 14:20:00,67.6,65.5,29.97,SE,142,0.0,0.0,93,0.00,OVC,,0.01,WeatherDisplay:10.37,2013-09-24 18:20:00,
2013-09-24 14:31:00,67.4,65.0,29.96,SE,142,0.0,1.0,92,0.00,OVC,,0.01,WeatherDisplay:10.37,2013-09-24 18:31:00,
2013-09-24 14:40:00,67.3,65.2,29.96,SE,142,0.0,1.0,93,0.01,RA,,0.02,WeatherDisplay:10.37,2013-09-24 18:40:00,
2013-09-24 14:50:00,67.5,65.7,29.96,SE,142,0.0,1.0,94,0.00,OVC,,0.02,WeatherDisplay:10.37,2013-09-24 18:50:00,
2013-09-24 15:01:00,67.7,65.6,29.96,SE,132,0.0,5.0,93,0.00,OVC,,0.02,WeatherDisplay:10.37,2013-09-24 19:01:00,
2013-09-24 15:10:00,67.9,65.5,29.96,South,186,2.0,6.0,92,0.00,OVC,,0.02,WeatherDisplay:10.37,2013-09-24 19:10:00,
2013-09-24 15:20:00,67.8,65.4,29.95,SSW,209,3.0,6.0,92,0.00,OVC,,0.02,WeatherDisplay:10.37,2013-09-24 19:20:00,
2013-09-24 15:31:00,67.8,65.4,29.95,SSW,204,1.0,5.0,92,0.00,OVC,,0.02,WeatherDisplay:10.37,2013-09-24 19:31:00,
2013-09-24 15:40:00,67.6,65.2,29.95,SW,236,5.0,8.0,92,0.00,OVC,,0.02,WeatherDisplay:10.37,2013-09-24 19:40:00,
2013-09-24 15:50:00,67.2,65.1,29.95,SW,233,1.0,6.0,93,0.00,OVC,,0.02,WeatherDisplay:10.37,2013-09-24 19:50:00,
2013-09-24 16:01:00,67.1,65.0,29.95,South,186,1.0,6.0,93,0.01,RA,,0.03,WeatherDisplay:10.37,2013-09-24 20:01:00,
2013-09-24 16:10:00,67.1,65.3,29.94,SSE,159,2.0,5.0,94,0.00,OVC,,0.03,WeatherDisplay:10.37,2013-09-24 20:10:00,
2013-09-24 16:20:00,67.2,65.4,29.93,South,174,0.0,5.0,94,0.00,OVC,,0.03,WeatherDisplay:10.37,2013-09-24 20:20:00,
2013-09-24 16:31:00,67.6,65.8,29.93,SSW,197,2.0,9.0,94,0.00,OVC,,0.03,WeatherDisplay:10.37,2013-09-24 20:31:00,
2013-09-24 16:40:00,67.8,65.4,29.93,SSW,202,2.0,8.0,92,0.00,-DZ,,0.03,WeatherDisplay:10.37,2013-09-24 20:40:00,
2013-09-24 16:50:00,67.9,65.2,29.93,SSE,163,1.0,9.0,91,0.00,OVC,,0.03,WeatherDisplay:10.37,2013-09-24 20:50:00,
2013-09-24 17:01:00,68.0,64.9,29.93,South,184,3.0,8.0,90,0.00,OVC,,0.03,WeatherDisplay:10.37,2013-09-24 21:01:00,
2013-09-24 17:10:00,68.0,65.3,29.92,SSE,168,0.0,8.0,91,0.00,OVC,,0.03,WeatherDisplay:10.37,2013-09-24 21:10:00,
2013-09-24 17:20:00,68.0,65.0,29.92,SSE,157,2.0,6.0,90,0.00,OVC,,0.03,WeatherDisplay:10.37,2013-09-24 21:20:00,
2013-09-24 17:31:00,68.0,65.0,29.92,SSW,195,1.0,6.0,90,0.00,OVC,,0.03,WeatherDisplay:10.37,2013-09-24 21:31:00,
2013-09-24 17:40:00,68.0,65.0,29.91,SSE,157,1.0,7.0,90,0.00,OVC,,0.03,WeatherDisplay:10.37,2013-09-24 21:40:00,
2013-09-24 17:50:00,68.1,65.1,29.92,SSW,212,1.0,7.0,90,0.00,OVC,,0.03,WeatherDisplay:10.37,2013-09-24 21:50:00,
2013-09-24 18:01:00,68.2,65.2,29.92,SSE,167,2.0,6.0,90,0.00,OVC,,0.03,WeatherDisplay:10.37,2013-09-24 22:01:00,
2013-09-24 18:10:00,68.4,65.4,29.91,SSW,212,1.0,6.0,90,0.00,OVC,,0.03,WeatherDisplay:10.37,2013-09-24 22:10:00,
2013-09-24 18:20:00,68.7,65.3,29.91,SSW,201,3.0,8.0,89,0.00,OVC,,0.03,WeatherDisplay:10.37,2013-09-24 22:20:00,
2013-09-24 18:31:00,68.9,65.2,29.90,South,174,1.0,7.0,88,0.00,OVC,,0.03,WeatherDisplay:10.37,2013-09-24 22:31:00,
2013-09-24 18:40:00,68.9,64.9,29.91,SSW,193,2.0,8.0,87,0.00,OVC,,0.03,WeatherDisplay:10.37,2013-09-24 22:40:00,
2013-09-24 18:50:00,68.8,64.8,29.91,SSW,212,5.0,8.0,87,0.00,OVC,,0.03,WeatherDisplay:10.37,2013-09-24 22:50:00,
2013-09-24 19:01:00,68.6,64.9,29.92,WSW,248,1.0,7.0,88,0.00,OVC,,0.03,WeatherDisplay:10.37,2013-09-24 23:01:00,
2013-09-24 19:10:00,68.4,64.7,29.91,SW,235,0.0,4.0,88,0.00,OVC,,0.03,WeatherDisplay:10.37,2013-09-24 23:10:00,
2013-09-24 19:20:00,68.2,64.5,29.89,South,170,2.0,5.0,88,0.00,OVC,,0.03,WeatherDisplay:10.37,2013-09-24 23:20:00,
2013-09-24 19:31:00,68.1,64.4,29.90,South,184,1.0,6.0,88,0.00,OVC,,0.03,WeatherDisplay:10.37,2013-09-24 23:31:00,
2013-09-24 19:40:00,68.1,64.4,29.90,SW,234,3.0,5.0,88,0.00,OVC,,0.03,WeatherDisplay:10.37,2013-09-24 23:40:00,
2013-09-24 19:50:00,68.0,64.6,29.89,WSW,245,0.0,7.0,89,0.00,OVC,,0.03,WeatherDisplay:10.37,2013-09-24 23:50:00,
2013-09-24 20:01:00,67.9,64.5,29.88,SSW,206,0.0,3.0,89,0.00,OVC,,0.03,WeatherDisplay:10.37,2013-09-25 00:01:00,
2013-09-24 20:10:00,67.7,64.3,29.90,SSW,209,0.0,3.0,89,0.00,OVC,,0.03,WeatherDisplay:10.37,2013-09-25 00:10:00,
2013-09-24 20:20:00,67.6,64.3,29.91,SSW,212,1.0,3.0,89,0.00,OVC,,0.03,WeatherDisplay:10.37,2013-09-25 00:20:00,
2013-09-24 20:31:00,67.6,64.6,29.90,SSW,212,0.0,3.0,90,0.00,OVC,,0.03,WeatherDisplay:10.37,2013-09-25 00:31:00,
2013-09-24 20:40:00,67.5,64.1,29.90,SSW,212,0.0,2.0,89,0.00,OVC,,0.03,WeatherDisplay:10.37,2013-09-25 00:40:00,
2013-09-24 20:50:00,67.5,64.1,29.91,SW,225,1.0,6.0,89,0.00,OVC,,0.03,WeatherDisplay:10.37,2013-09-25 00:50:00,
2013-09-24 21:01:00,67.6,64.2,29.92,WSW,238,0.0,4.0,89,0.00,OVC,,0.03,WeatherDisplay:10.37,2013-09-25 01:01:00,
2013-09-24 21:10:00,67.5,64.5,29.91,WSW,238,0.0,1.0,90,0.00,OVC,,0.03,WeatherDisplay:10.37,2013-09-25 01:10:00,
2013-09-24 21:20:00,67.4,64.4,29.91,WSW,238,0.0,1.0,90,0.00,OVC,,0.03,WeatherDisplay:10.37,2013-09-25 01:20:00,
2013-09-24 21:31:00,67.3,64.3,29.91,WSW,238,0.0,4.0,90,0.00,OVC,,0.03,WeatherDisplay:10.37,2013-09-25 01:31:00,
2013-09-24 21:40:00,67.3,64.2,29.91,WSW,238,0.0,1.0,90,0.00,OVC,,0.03,WeatherDisplay:10.37,2013-09-25 01:40:00,
2013-09-24 21:50:00,67.2,64.5,29.91,WSW,238,0.0,0.0,91,0.00,OVC,,0.03,WeatherDisplay:10.37,2013-09-25 01:50:00,
2013-09-24 22:01:00,67.1,64.4,29.91,WSW,238,0.0,0.0,91,0.00,OVC,,0.03,WeatherDisplay:10.37,2013-09-25 02:01:00,
2013-09-24 22:10:00,67.0,64.3,29.91,WSW,238,0.0,1.0,91,0.00,OVC,,0.03,WeatherDisplay:10.37,2013-09-25 02:10:00,
2013-09-24 22:20:00,67.0,64.6,29.90,WSW,238,0.0,0.0,92,0.00,OVC,,0.03,WeatherDisplay:10.37,2013-09-25 02:20:00,
2013-09-24 22:31:00,66.8,64.4,29.90,WSW,238,0.0,0.0,92,0.00,OVC,,0.03,WeatherDisplay:10.37,2013-09-25 02:31:00,
2013-09-24 22:40:00,66.8,64.1,29.90,WSW,238,0.0,3.0,91,0.00,-RA,,0.03,WeatherDisplay:10.37,2013-09-25 02:40:00,
2013-09-24 22:50:00,67.0,64.0,29.90,WSW,238,0.0,3.0,90,0.00,-DZ,,0.03,WeatherDisplay:10.37,2013-09-25 02:50:00,
2013-09-24 23:01:00,67.1,64.1,29.90,WSW,238,0.0,4.0,90,0.00,-DZ,,0.03,WeatherDisplay:10.37,2013-09-25 03:01:00,
2013-09-24 23:10:00,67.2,64.1,29.90,WSW,238,0.0,3.0,90,0.00,OVC,,0.03,WeatherDisplay:10.37,2013-09-25 03:10:00,
2013-09-24 23:20:00,67.1,64.1,29.90,WSW,238,2.0,5.0,90,0.00,OVC,,0.03,WeatherDisplay:10.37,2013-09-25 03:20:00,
2013-09-24 23:31:00,67.0,64.0,29.89,WSW,238,0.0,4.0,90,0.00,OVC,,0.03,WeatherDisplay:10.37,2013-09-25 03:31:00,
2013-09-24 23:40:00,66.9,64.2,29.89,SSW,203,0.0,6.0,91,0.00,OVC,,0.03,WeatherDisplay:10.37,2013-09-25 03:40:00,
2013-09-24 23:50:00,66.8,64.1,29.89,SSW,205,1.0,4.0,91,0.00,-RA,,0.03,WeatherDisplay:10.37,2013-09-25 03:50:00,